[[{"header":{"parameterUnit":"m.s-1","parameterCategory":1,"la1":30.2991,"la2":30.254,"lo1":-89.0895,"lo2":-89.0444,"dy":0.0017,"dx":0.0017,"nx":28,"ny":28,"refTime":"2025-03-26T09:00:00:Z","depth":0,"parameterNumber":2,"parameterNumberName":"U-component_of_WINDS"},"data":[0,0,0,0,0,0,0,0,0,0,0,0,0,0,0,0,0,0,0,0,0,0,0,0,0,0,0,0,0,0,0,0,0,0,0,0,0,0,0,0,0,0,0,0,0,0,0,0,0,0,0,0,0,0,0,0,0,0,-0.4338,-0.4337,0,-0.4207,-0.4205,-0.4204,-0.4142,-0.4143,-0.4143,-0.4143,-0.4009,-0.4005,-0.4002,0,0,0,0,0,0,0,0,0,0,0,0,0,-0.4538,-0.4534,-0.4338,-0.4337,-0.4335,-0.4207,-0.4205,-0.4204,-0.4142,-0.4143,-0.4143,-0.4143,-0.401,-0.4006,-0.4001,0,0,0,0,0,0,0,0,0,0,0,0,0,-0.4433,-0.4533,-0.4339,-0.4289,-0.4283,-0.4208,-0.4205,-0.4203,-0.4142,-0.4143,-0.4143,-0.4143,-0.4011,-0.4006,-0.4001,-0.3964,0,0,-0.3984,-0.3982,0,0,0,0,0,0,0,0,-0.4439,-0.4426,-0.4298,-0.4292,-0.4286,-0.4191,-0.4226,-0.4123,-0.4142,-0.4196,-0.4143,-0.4143,-0.4069,-0.4059,-0.4034,-0.3958,-0.3952,-0.3983,-0.398,-0.3978,-0.3976,0,0,0,0,0,0,0,-0.4447,-0.4431,-0.4286,-0.4296,-0.4289,-0.4274,-0.4259,-0.4207,-0.4134,-0.4191,-0.4187,-0.4172,-0.4066,-0.404,-0.4031,-0.395,-0.3984,-0.3979,-0.3975,-0.3973,-0.3839,-0.3838,0,0,0,0,0,0,-0.4462,-0.4438,-0.4291,-0.4282,-0.4364,-0.427,-0.4254,-0.4221,-0.4134,-0.4121,-0.4172,-0.4169,-0.4049,-0.4037,-0.4026,-0.3977,-0.3978,-0.3973,-0.397,-0.3839,-0.3838,-0.3838,0,0,0,0,0,0,-0.4466,-0.4449,-0.4296,-0.4359,-0.4338,-0.4267,-0.4231,-0.4219,-0.4192,-0.4119,-0.4106,-0.4158,-0.4049,-0.4033,-0.398,-0.3972,-0.397,-0.3965,-0.3839,-0.3839,-0.3838,-0.3881,0,0,0,0,0,0,-0.4472,-0.4451,-0.4436,-0.4359,-0.4335,-0.4252,-0.423,-0.4216,-0.4183,-0.4179,-0.4103,-0.409,-0.4047,-0.3989,-0.3975,-0.3964,-0.3961,-0.384,-0.3839,-0.3838,-0.388,-0.3882,-0.3884,0,0,0,0,0,-0.448,-0.4454,-0.4436,-0.4418,-0.4315,-0.4252,-0.4238,-0.4189,-0.4183,-0.4167,-0.412,-0.4093,-0.3976,-0.3984,-0.3967,-0.3956,-0.384,-0.3839,-0.3839,-0.3879,-0.3882,-0.3884,0,0,0,0,0,0,-0.4532,-0.4442,-0.4422,-0.437,-0.4319,-0.4242,-0.4221,-0.4193,-0.4143,-0.4141,-0.4083,-0.4066,-0.4018,-0.3982,-0.3992,-0.3916,-0.3905,-0.3901,-0.3942,-0.3944,-0.3945,-0.3955,-0.3956,0,0,0,0,0,-0.4537,-0.4493,-0.4418,-0.4379,-0.4355,-0.4293,-0.4263,-0.423,-0.4175,-0.4153,-0.4102,-0.405,-0.4001,-0.3971,-0.3922,-0.3875,-0.3858,-0.3859,-0.3861,-0.3863,-0.386,-0.3833,-0.3833,-0.3836,-0.3836,-0.3836,0,0,-0.4548,-0.4494,-0.447,-0.4388,-0.4345,-0.4301,-0.4275,-0.4229,-0.4196,-0.4146,-0.4092,-0.4054,-0.3992,-0.3942,-0.3917,-0.391,-0.3855,-0.3862,-0.3864,-0.386,-0.3832,-0.3832,-0.3832,-0.3836,-0.3836,-0.3836,0,0,-0.4545,-0.45,-0.4463,-0.442,-0.4355,-0.4314,-0.4305,-0.4232,-0.4204,-0.415,-0.4111,-0.4072,-0.3989,-0.3947,-0.3914,-0.3897,-0.387,-0.3883,-0.3893,-0.3867,-0.3867,-0.3866,-0.386,-0.3859,-0.388,-0.3881,-0.3881,0,-0.4567,-0.4499,-0.4447,-0.4404,-0.437,-0.4323,-0.4285,-0.4246,-0.4169,-0.4146,-0.4139,-0.4035,-0.399,-0.393,-0.3926,-0.3901,-0.389,-0.3891,-0.3871,-0.387,-0.3869,-0.3862,-0.386,-0.3882,-0.3882,-0.3882,-0.3882,0,-0.4529,-0.4482,-0.446,-0.4387,-0.435,-0.431,-0.4253,-0.4222,-0.4193,-0.4153,-0.4098,-0.4043,-0.3982,-0.3966,-0.3936,-0.3901,-0.3899,-0.3882,-0.387,-0.3871,-0.3864,-0.3861,-0.3885,-0.3885,-0.3884,-0.3884,0,0,-0.4554,-0.4453,-0.4445,-0.4412,-0.4337,-0.43,-0.4259,-0.4199,-0.4174,-0.4123,-0.4087,-0.4019,-0.4003,-0.3966,-0.3932,-0.391,-0.39,-0.3896,-0.3893,-0.3898,-0.3859,-0.3871,-0.3869,-0.3882,-0.3881,-0.3881,-0.3864,0,-0.454,-0.4463,-0.4416,-0.4357,-0.4314,-0.427,-0.4234,-0.4184,-0.4146,-0.4104,-0.4062,-0.4015,-0.3998,-0.3976,-0.3952,-0.3906,-0.3891,-0.3907,-0.3848,-0.3846,-0.3864,-0.3865,-0.3878,-0.3865,-0.3861,-0.386,-0.386,0,-0.4514,-0.4463,-0.4401,-0.4331,-0.4312,-0.428,-0.4222,-0.4183,-0.4126,-0.41,-0.406,-0.4026,-0.3981,-0.3973,-0.3911,-0.3922,-0.3896,-0.387,-0.3868,-0.386,-0.3853,-0.3857,-0.3859,-0.3857,-0.3855,-0.3855,-0.3856,0,-0.4538,-0.4455,-0.4406,-0.4379,-0.4297,-0.4276,-0.4241,-0.4184,-0.4152,-0.4102,-0.4081,-0.4026,-0.3997,-0.3956,-0.3908,-0.3907,-0.385,-0.3838,-0.3827,-0.3829,-0.3817,-0.3818,-0.3814,-0.3801,-0.3801,-0.3801,-0.3801,0,-0.4527,-0.4491,-0.4416,-0.4387,-0.4345,-0.4292,-0.4252,-0.4214,-0.4164,-0.4127,-0.4085,-0.4051,-0.3991,-0.3949,-0.3912,-0.3866,-0.3853,-0.3831,-0.3821,-0.3834,-0.3837,-0.3815,-0.3815,-0.38,-0.38,-0.3801,-0.3801,0,-0.4547,-0.4496,-0.444,-0.4367,-0.4348,-0.4321,-0.4259,-0.4229,-0.4189,-0.4142,-0.4128,-0.4066,-0.4015,-0.3964,-0.3896,-0.387,-0.3826,-0.3813,-0.3845,-0.3839,-0.3831,-0.3832,-0.3812,-0.3807,-0.3798,-0.3799,-0.3799,0,-0.4543,-0.4514,-0.4438,-0.441,-0.4376,-0.4331,-0.4298,-0.4246,-0.4213,-0.4147,-0.4126,-0.4072,-0.4026,-0.3947,-0.3896,-0.3844,-0.3829,-0.3826,-0.3821,-0.3835,-0.3829,-0.3831,-0.3828,-0.3828,-0.3828,-0.3828,-0.3829,0,-0.4542,-0.4518,-0.4472,-0.4417,-0.4379,-0.4333,-0.4286,-0.4265,-0.4204,-0.417,-0.4117,-0.4082,-0.4012,-0.396,-0.3902,-0.3866,-0.3837,-0.3831,-0.3825,-0.3838,-0.3858,-0.3847,-0.3849,-0.3831,-0.3831,-0.3831,-0.3831,-0.3831,-0.4549,-0.4522,-0.4464,-0.4414,-0.4373,-0.4331,-0.4299,-0.4256,-0.4211,-0.415,-0.4122,-0.407,-0.4015,-0.3934,-0.3899,-0.3858,-0.385,-0.3842,-0.384,-0.3839,-0.3842,-0.3865,-0.3847,-0.3847,-0.3847,-0.3847,-0.3847,0,-0.4546,-0.4507,-0.4462,-0.4397,-0.4358,-0.4335,-0.4282,-0.4251,-0.4205,-0.4156,-0.4112,-0.4053,-0.4002,-0.3948,-0.3894,-0.3871,-0.3857,-0.3859,-0.386,-0.3852,-0.3852,-0.3862,-0.3871,-0.3871,-0.3871,-0.3871,-0.3871,-0.3871,-0.4539,-0.4491,-0.4461,-0.4393,-0.4354,-0.4302,-0.4274,-0.4235,-0.4195,-0.4131,-0.4088,-0.4053,-0.4002,-0.3945,-0.3897,-0.3883,-0.3865,-0.3871,-0.3852,-0.3854,-0.3852,-0.385,-0.3859,-0.3867,-0.3867,-0.3855,-0.3855,-0.3855]},{"header":{"parameterUnit":"m.s-1","parameterCategory":1,"la1":30.2991,"la2":30.254,"lo1":-89.0895,"lo2":-89.0444,"dy":0.0017,"dx":0.0017,"nx":28,"ny":28,"refTime":"2025-03-26T09:00:00:Z","depth":0,"parameterNumber":3,"parameterNumberName":"V-component_of_WINDS"},"data":[0,0,0,0,0,0,0,0,0,0,0,0,0,0,0,0,0,0,0,0,0,0,0,0,0,0,0,0,0,0,0,0,0,0,0,0,0,0,0,0,0,0,0,0,0,0,0,0,0,0,0,0,0,0,0,0,0,0,0.6293,0.6293,0,0.6353,0.6354,0.6354,0.6327,0.6325,0.6324,0.6322,0.6389,0.6392,0.6395,0,0,0,0,0,0,0,0,0,0,0,0,0,0.6158,0.616,0.6293,0.6293,0.6294,0.6353,0.6354,0.6355,0.6327,0.6325,0.6323,0.6322,0.6388,0.6391,0.6395,0,0,0,0,0,0,0,0,0,0,0,0,0,0.6217,0.6161,0.6292,0.6287,0.6287,0.6353,0.6354,0.6355,0.6327,0.6325,0.6323,0.6321,0.6386,0.6391,0.6396,0.6471,0,0,0.641,0.6412,0,0,0,0,0,0,0,0,0.6214,0.6222,0.6287,0.6288,0.6288,0.633,0.633,0.6394,0.6328,0.6312,0.6322,0.632,0.6371,0.6377,0.6394,0.6474,0.6477,0.6411,0.6414,0.6416,0.6417,0,0,0,0,0,0,0,0.621,0.6219,0.6317,0.6288,0.6289,0.6283,0.6289,0.6342,0.6354,0.6314,0.6312,0.6319,0.6371,0.6389,0.6395,0.6478,0.6411,0.6415,0.6418,0.642,0.6621,0.6624,0,0,0,0,0,0,0.6205,0.6216,0.6315,0.6318,0.6244,0.6288,0.6294,0.6319,0.6353,0.6356,0.6321,0.6318,0.6382,0.6389,0.6397,0.6485,0.6416,0.642,0.6423,0.6619,0.6622,0.6625,0,0,0,0,0,0,0.6202,0.6214,0.6312,0.6267,0.6279,0.6292,0.632,0.6321,0.6339,0.6359,0.6361,0.6337,0.6381,0.6391,0.6452,0.6487,0.6422,0.6427,0.6616,0.662,0.6623,0.6664,0,0,0,0,0,0,0.6198,0.6213,0.6241,0.6268,0.6281,0.6365,0.6323,0.6324,0.6347,0.6343,0.6374,0.6377,0.638,0.6445,0.6457,0.6493,0.643,0.6613,0.6618,0.6622,0.6659,0.6668,0.6676,0,0,0,0,0,0.6194,0.6251,0.6242,0.6255,0.6316,0.6367,0.6375,0.6375,0.635,0.6378,0.6391,0.6376,0.6482,0.6452,0.6465,0.6503,0.6611,0.6616,0.6622,0.6655,0.6667,0.6676,0,0,0,0,0,0,0.623,0.6255,0.6245,0.6313,0.6338,0.6362,0.6398,0.6387,0.6421,0.6416,0.6416,0.6424,0.6487,0.6502,0.6467,0.6577,0.6543,0.6551,0.6564,0.6575,0.6583,0.6577,0.6434,0,0,0,0,0,0.6246,0.6284,0.6304,0.6362,0.6375,0.6384,0.6407,0.6404,0.6431,0.6442,0.6459,0.6486,0.6526,0.6552,0.6589,0.6662,0.6668,0.6695,0.6703,0.671,0.6717,0.6755,0.6767,0.6643,0.6643,0.6643,0,0,0.6279,0.6297,0.6322,0.637,0.6389,0.6429,0.6393,0.6438,0.6467,0.6449,0.6506,0.6521,0.6552,0.6619,0.6649,0.6633,0.6753,0.6717,0.6723,0.6726,0.6762,0.6774,0.6784,0.6647,0.6646,0.6646,0,0,0.6359,0.6378,0.6426,0.6446,0.6474,0.648,0.6492,0.6519,0.6526,0.6584,0.657,0.6607,0.6676,0.6697,0.6717,0.6806,0.6793,0.6818,0.6862,0.6899,0.6909,0.6917,0.6947,0.6958,0.6825,0.6826,0.6826,0,0.6397,0.6455,0.6454,0.6498,0.6519,0.6503,0.6553,0.6573,0.6613,0.6628,0.661,0.6693,0.6713,0.6784,0.6806,0.6823,0.6837,0.6813,0.6907,0.6916,0.6924,0.6952,0.6963,0.6828,0.6828,0.6828,0.6827,0,0.6499,0.654,0.6577,0.6613,0.6639,0.6686,0.6692,0.6719,0.6715,0.6723,0.6783,0.6806,0.6847,0.6864,0.6862,0.6935,0.6924,0.6906,0.6872,0.6938,0.6964,0.6975,0.6832,0.6831,0.683,0.683,0,0,0.6603,0.6637,0.665,0.6666,0.6696,0.6728,0.6776,0.6814,0.6836,0.6865,0.6904,0.6962,0.6945,0.6968,0.6968,0.7001,0.7067,0.698,0.698,0.6993,0.7148,0.7158,0.7171,0.706,0.7062,0.7064,0.7144,0,0.6683,0.6762,0.6762,0.6835,0.6872,0.6858,0.6899,0.6922,0.6932,0.6966,0.6977,0.7017,0.6994,0.7007,0.7039,0.7052,0.7098,0.7047,0.7096,0.7098,0.7086,0.7185,0.7197,0.7271,0.7155,0.7156,0.7158,0,0.6786,0.6816,0.6892,0.6916,0.6932,0.6968,0.7002,0.7035,0.7062,0.7067,0.7092,0.7087,0.7135,0.7101,0.7168,0.7133,0.7154,0.7164,0.7166,0.7169,0.713,0.7188,0.7295,0.7305,0.7174,0.7173,0.7172,0,0.685,0.691,0.6963,0.6977,0.7007,0.7033,0.7047,0.7071,0.7094,0.7125,0.714,0.7178,0.7198,0.7227,0.7233,0.7208,0.7299,0.7266,0.7304,0.7303,0.7321,0.732,0.7431,0.7339,0.7339,0.7339,0.7338,0,0.6938,0.6985,0.6992,0.7024,0.7076,0.7077,0.7129,0.7141,0.7163,0.7198,0.719,0.7224,0.723,0.7265,0.727,0.7324,0.7334,0.7339,0.7339,0.7338,0.7337,0.735,0.7344,0.7342,0.7341,0.734,0.734,0,0.7018,0.7024,0.708,0.7104,0.7111,0.7148,0.7168,0.72,0.7209,0.7253,0.7264,0.7278,0.7319,0.7328,0.7377,0.7381,0.7443,0.744,0.7433,0.7432,0.7468,0.7464,0.759,0.7605,0.7506,0.7506,0.7507,0,0.7072,0.7107,0.7134,0.7155,0.717,0.7206,0.7228,0.7231,0.7255,0.7288,0.7316,0.7355,0.7387,0.7453,0.7469,0.7507,0.7503,0.7544,0.7508,0.7505,0.75,0.7497,0.75,0.755,0.7551,0.7552,0.7553,0,0.7167,0.7168,0.7199,0.7232,0.7259,0.7286,0.7311,0.733,0.7336,0.7364,0.7404,0.7429,0.7478,0.7518,0.7555,0.7571,0.7563,0.7564,0.7575,0.7573,0.7566,0.7568,0.7449,0.7561,0.756,0.7559,0.7559,0.7559,0.7234,0.7263,0.7286,0.7322,0.7341,0.7364,0.7394,0.7406,0.7439,0.7478,0.7479,0.7523,0.7549,0.7598,0.7617,0.7652,0.7639,0.7655,0.7658,0.7661,0.7663,0.7562,0.7659,0.7659,0.7659,0.7659,0.7659,0,0.7326,0.7339,0.7372,0.7406,0.7434,0.7423,0.7451,0.7475,0.7514,0.7538,0.7569,0.7616,0.7654,0.7672,0.771,0.7735,0.7732,0.7745,0.7742,0.7745,0.7674,0.766,0.7746,0.7746,0.7746,0.7746,0.7746,0.7746,0.7377,0.7426,0.743,0.7489,0.7503,0.7544,0.7561,0.7583,0.7602,0.7653,0.7684,0.7696,0.7718,0.7757,0.7792,0.7797,0.781,0.7824,0.7827,0.7759,0.775,0.7742,0.7728,0.7828,0.7828,0.7895,0.7895,0.7896]}]]